Theta_e
322 323 323 323 322 322 321 321 320 320 319 316 316 315 313 312 313 312 312 312 312 312 314 314 315 317 317 320 322 324 326 326 322 322 324 328 332 336 337 340 341 338 336
319 320 321 322 321 321 320 319 319 317 316 313 313 311 310 310 310 309 308 308 308 308 308 309 309 311 310 314 316 319 322 324 322 320 322 323 327 327 333 334 337 340 338
316 317 320 320 320 319 317 318 317 314 312 312 311 310 310 310 309 308 307 307 307 307 307 306 306 306 307 309 311 314 318 322 323 321 322 325 324 329 327 328 332 333 339
314 315 316 318 318 317 316 316 314 313 312 311 311 310 309 309 309 308 307 307 308 308 307 307 306 306 306 307 309 310 313 310 315 320 321 321 324 326 326 322 322 331 331
312 313 315 317 316 315 314 314 314 312 311 310 309 308 309 309 308 307 306 306 305 305 306 306 306 307 308 308 306 306 306 305 308 310 317 319 319 320 319 323 322 325 329
310 311 313 314 313 313 313 313 312 312 312 311 310 309 308 308 304 303 305 305 306 306 304 304 305 307 306 306 306 307 306 304 303 305 310 314 317 319 321 322 322 321 319
307 310 310 311 310 311 311 311 310 310 310 308 309 308 307 306 302 301 303 305 305 305 304 304 304 305 305 304 304 305 306 305 306 307 306 311 316 320 322 322 320 321 320
305 307 308 307 308 309 309 308 308 307 306 307 307 307 305 306 302 300 301 304 305 305 305 304 304 303 304 303 304 304 306 307 308 311 311 315 317 321 323 323 322 322 322
301 301 302 303 305 306 305 304 307 306 307 307 307 307 307 307 303 300 301 306 306 306 306 305 305 304 302 299 303 302 303 305 309 306 305 303 303 307 310 321 319 318 317
297 298 299 301 302 303 304 305 305 306 306 307 307 308 308 309 304 300 301 306 305 306 307 307 303 303 300 297 302 302 301 303 306 308 309 308 307 312 308 317 316 315 316
295 296 297 298 301 302 305 304 306 306 306 305 307 309 309 308 307 300 299 303 304 304 305 307 309 301 297 296 297 302 301 303 304 307 309 310 315 318 320 318 323 321 318
293 294 295 298 300 302 303 303 304 305 305 304 304 305 308 307 302 300 297 297 298 299 301 305 309 300 297 296 297 298 296 298 303 306 307 309 315 317 320 323 325 325 327
291 292 294 295 298 299 301 303 302 304 302 301 301 302 301 301 300 297 295 295 297 298 302 304 300 298 297 298 296 296 296 300 304 305 305 308 316 319 321 322 324 328 326
291 290 291 292 295 298 301 301 300 301 301 300 301 300 297 296 295 295 295 297 301 304 304 305 303 301 299 303 303 302 302 306 306 305 308 312 317 319 320 322 321 323 322
292 290 289 290 294 296 297 297 295 298 296 297 300 297 293 291 292 291 292 294 299 301 298 303 308 305 304 306 307 310 308 309 308 310 312 313 315 317 319 322 322 322 321
292 291 289 289 291 292 293 293 292 292 293 293 293 292 292 291 291 291 292 293 295 296 306 309 308 308 307 308 310 312 314 311 312 314 315 315 315 317 318 319 322 321 319
293 292 291 289 289 288 289 291 289 291 293 292 292 291 290 289 290 291 292 292 296 303 310 311 308 309 311 312 312 312 311 314 315 313 315 315 317 319 314 319 320 319 315
296 292 294 293 289 288 288 289 290 288 287 289 292 291 289 289 290 290 291 295 300 302 303 306 310 308 310 311 312 311 311 311 313 314 313 312 312 315 318 319 318 317 315
294 293 295 296 295 292 292 290 290 290 288 288 289 289 289 290 290 290 290 292 292 296 299 303 306 307 309 313 311 310 310 310 312 313 313 313 313 313 314 317 317 308 311
295 290 292 294 294 294 295 294 292 291 290 288 287 287 288 289 287 287 288 288 290 292 295 296 302 304 305 305 307 314 313 310 312 314 313 314 314 315 314 315 313 317 318
293 294 290 293 293 292 293 293 292 293 292 289 287 287 286 289 286 286 286 286 287 289 292 293 297 299 301 301 303 300 301 301 308 317 316 317 316 314 316 317 315 318 319
292 291 292 290 291 291 291 292 291 291 291 291 290 288 286 289 288 286 286 286 287 288 290 292 293 294 296 300 297 296 293 292 297 304 313 318 317 317 319 319 320 320 319
291 290 289 289 289 289 290 290 290 289 290 290 290 289 288 287 287 287 286 286 287 287 289 289 291 292 293 298 295 294 288 287 293 296 298 314 321 319 320 319 320 321 321
290 289 288 287 287 287 287 287 288 286 288 289 289 289 289 288 287 287 287 287 287 288 288 288 289 289 291 292 291 290 288 286 290 291 295 307 316 317 319 319 320 322 320
290 289 288 286 285 285 285 285 286 286 286 287 287 287 288 288 287 287 287 287 287 288 288 288 288 288 290 290 288 287 285 285 287 285 291 302 318 319 321 322 322 322 320
290 289 288 287 284 284 283 283 283 283 283 285 285 286 286 286 286 285 286 286 286 287 288 288 288 289 288 289 287 285 284 284 285 284 289 307 313 316 318 320 322 322 322
Wind_Speed
4 3 3 3 4 4 4 5 5 6 7 9 10 10 11 11 11 10 10 11 11 11 10 12 13 13 10 11 12 12 12 14 17 13 9 6 5 5 5 4 4 5 4
5 4 4 4 4 5 5 6 6 7 8 9 10 11 11 11 10 10 12 12 13 12 12 13 14 11 14 13 11 14 14 14 14 16 14 11 7 7 5 4 5 5 5
6 5 4 4 4 5 6 6 6 7 8 9 11 11 12 11 12 11 12 13 13 13 13 12 13 15 15 13 14 13 11 11 14 15 12 6 8 4 4 3 4 4 4
7 6 5 4 4 5 6 6 6 6 8 10 11 12 13 13 13 13 12 14 13 12 13 13 13 15 15 15 14 15 12 9 12 14 12 11 6 4 4 4 4 4 4
8 7 6 5 5 6 6 7 6 7 9 11 12 12 12 12 10 10 13 14 15 15 14 14 14 17 24 20 13 14 13 10 10 11 12 12 11 7 4 4 5 4 5
9 9 7 7 7 6 6 7 8 10 10 11 12 12 12 9 13 13 16 14 16 16 15 15 15 20 19 24 24 25 21 15 15 12 11 12 14 9 7 5 5 3 3
11 11 9 9 9 7 8 9 11 12 12 12 12 12 14 14 17 17 21 15 15 15 16 15 14 13 18 16 18 20 21 24 23 15 16 14 13 6 7 7 4 4 4
9 11 11 12 11 11 11 10 11 11 11 11 12 13 13 13 17 18 16 13 14 16 16 17 16 17 16 17 15 16 16 14 15 13 14 14 13 14 6 4 5 4 2
11 12 13 14 13 12 11 11 11 11 11 10 12 13 13 15 17 17 17 16 16 18 15 16 16 17 21 18 14 17 17 15 13 15 13 14 15 21 10 1 4 3 4
12 13 13 12 11 11 11 11 10 9 11 10 12 13 16 15 17 18 19 14 17 14 16 16 20 21 23 17 13 15 16 16 13 11 12 12 13 17 16 8 6 5 3
12 12 12 12 12 11 10 10 8 9 10 11 13 12 13 12 18 22 23 15 13 12 12 13 12 17 20 21 21 16 18 17 16 13 9 9 12 13 10 6 7 7 6
11 12 12 10 10 9 10 10 9 9 9 10 12 12 10 14 21 21 26 27 24 14 13 13 14 15 17 19 17 21 22 21 12 10 7 8 10 8 6 7 10 10 9
11 11 11 12 11 11 10 8 8 7 6 9 10 10 11 14 13 24 28 29 22 10 10 16 21 20 18 16 18 20 15 8 9 8 7 8 9 5 6 8 9 10 9
10 10 11 11 11 9 8 8 9 8 9 9 9 10 11 13 13 15 16 16 17 11 12 13 17 17 14 9 8 9 6 7 8 8 9 8 3 1 5 6 6 7 5
9 8 10 9 10 9 9 8 10 11 10 8 7 9 10 13 16 23 19 14 13 13 14 10 8 2 3 4 6 6 6 7 8 8 6 5 5 6 8 8 7 7 6
7 7 6 7 7 9 8 9 12 16 16 14 4 6 10 19 29 33 34 31 25 17 7 12 12 6 3 2 3 3 4 7 8 8 6 6 7 6 6 5 6 9 9
5 5 4 6 7 9 9 10 11 12 15 19 12 15 25 25 28 28 29 25 20 21 12 11 12 13 9 4 2 2 3 4 9 7 6 2 7 7 5 5 9 10 11
5 1 6 3 4 5 7 8 8 9 12 13 14 15 22 24 23 26 29 18 17 16 14 15 12 9 7 9 8 8 8 8 8 9 6 5 4 2 9 6 11 12 12
7 7 8 4 2 2 4 5 6 6 8 10 12 13 18 20 20 22 24 13 14 15 14 14 14 15 15 7 4 2 2 4 5 4 5 4 4 4 7 8 10 13 13
7 3 9 7 7 8 6 5 3 5 6 7 11 14 15 16 16 17 16 15 13 14 15 16 16 15 15 16 15 11 3 1 4 5 3 3 4 5 5 7 8 10 7
7 8 11 9 9 9 9 9 10 9 6 6 6 11 17 11 12 12 13 14 14 13 16 16 15 15 14 16 17 15 15 15 17 3 4 6 6 5 2 3 5 5 7
8 9 9 10 9 10 10 9 10 10 10 10 8 8 13 11 11 11 12 12 14 14 12 12 13 13 15 13 15 14 15 16 15 13 11 5 9 9 5 6 6 5 6
9 10 11 10 10 11 10 11 11 11 11 11 11 10 9 10 11 12 12 11 11 14 14 12 13 13 14 13 14 13 13 13 13 15 14 13 2 8 7 5 8 8 6
10 11 11 11 10 11 11 11 11 13 12 12 11 11 11 11 12 13 12 12 11 11 13 14 14 21 19 16 14 13 13 16 16 15 14 8 11 4 5 5 5 10 8
10 10 11 11 11 11 12 12 11 12 12 12 11 12 11 11 12 13 14 12 12 11 13 12 12 19 21 25 24 24 19 18 19 21 14 18 18 7 7 8 10 9 10
9 10 9 8 9 10 9 9 11 12 12 11 11 12 12 12 12 13 13 14 13 13 15 11 14 20 23 19 24 27 26 26 24 28 16 12 13 11 2 5 11 9 10
Wind_Direction
49 38 29 5 356 356 342 340 336 328 321 321 323 331 332 328 326 324 315 308 305 307 307 306 309 302 295 301 287 287 275 266 265 256 263 269 219 164 187 197 222 247 213
17 6 358 357 356 343 335 335 331 330 339 335 326 318 309 301 296 290 287 288 291 292 297 294 293 293 294 304 288 291 275 271 273 282 266 235 220 226 176 184 214 205 223
343 345 354 353 337 339 331 326 332 344 330 318 301 297 297 293 290 281 277 277 274 271 270 273 279 280 282 280 277 286 293 290 277 273 272 253 242 200 213 220 215 209 220
337 334 333 331 335 322 318 318 339 314 315 304 295 301 301 291 293 286 288 281 274 274 269 267 273 274 273 281 284 278 277 306 315 280 269 271 242 207 165 183 245 198 226
331 326 319 322 325 324 330 317 293 316 300 295 293 293 289 299 294 306 301 289 289 281 272 270 265 263 269 275 274 276 282 283 287 290 288 259 257 266 201 189 203 192 212
327 315 319 323 328 324 312 301 324 319 309 303 305 302 306 300 303 291 288 288 285 277 277 276 272 270 268 265 260 261 258 261 263 262 273 283 251 248 245 213 189 181 236
329 320 330 334 325 328 336 338 342 321 321 313 308 317 310 308 291 287 281 280 277 271 273 272 269 264 268 269 268 265 258 246 241 251 260 259 280 229 242 226 198 185 209
328 321 339 328 334 334 335 341 317 310 311 307 313 308 299 289 273 267 265 278 274 274 271 270 269 269 263 263 264 266 266 266 262 234 235 248 246 271 246 216 193 201 254
351 344 336 327 325 330 327 319 314 310 308 309 298 301 295 298 290 290 290 290 280 274 265 260 257 261 260 246 249 260 265 265 258 252 244 256 266 252 246 216 244 199 235
340 332 326 318 319 319 310 307 306 310 305 310 309 308 298 309 309 304 298 298 282 270 266 260 248 246 252 247 246 256 260 260 257 258 260 263 252 249 233 207 209 230 218
334 331 328 327 313 305 308 313 304 316 322 321 313 305 309 315 319 313 313 308 300 294 284 272 258 238 236 242 239 244 246 256 256 253 255 256 274 225 215 196 205 210 218
342 337 331 321 317 312 323 301 326 322 331 325 326 327 322 330 317 321 318 308 300 290 280 276 272 251 237 235 240 246 243 243 244 237 236 259 251 196 195 192 212 212 203
353 346 338 331 330 321 317 323 325 332 322 324 333 333 337 326 330 329 324 320 317 301 277 279 273 264 250 245 241 244 233 224 214 205 211 245 250 196 201 199 215 190 189
4 352 341 335 324 332 326 354 345 341 348 340 339 342 339 332 333 333 328 321 311 308 296 289 282 272 259 245 245 243 218 206 200 207 216 225 269 262 234 207 192 184 178
6 355 352 336 327 345 0 348 358 335 341 335 357 359 351 338 326 320 321 316 312 303 308 303 311 310 267 218 227 236 196 209 202 222 229 241 237 237 230 196 183 177 177
-0 1 3 343 349 351 355 349 351 334 335 356 64 20 1 338 336 346 345 339 333 350 328 353 1 3 336 294 267 254 197 194 208 214 217 222 237 216 216 185 176 171 150
17 340 24 3 6 8 355 353 353 354 353 350 347 10 6 345 347 344 345 334 333 359 356 357 11 18 25 3 314 282 257 243 221 219 223 215 202 194 158 168 158 145 134
1 263 4 17 5 15 8 355 355 2 352 352 347 5 357 348 352 354 355 354 8 7 2 359 347 2 10 32 35 35 38 43 52 73 93 84 58 120 168 166 144 145 143
12 15 337 3 104 157 56 10 358 -0 356 351 348 358 358 359 3 4 6 16 2 358 1 358 8 1 4 339 109 130 81 82 79 48 80 71 62 72 106 129 138 139 138
7 349 342 14 5 11 352 32 45 22 21 9 5 360 350 2 10 9 3 359 4 0 356 357 1 11 3 4 7 351 327 208 112 134 111 79 45 43 54 98 106 110 121
6 14 6 23 8 19 357 12 8 358 43 36 29 7 348 13 10 9 5 358 359 359 355 353 357 355 11 10 3 17 13 1 353 91 134 146 144 136 151 63 55 118 123
14 23 19 29 6 17 360 13 18 1 10 22 22 32 3 13 14 15 10 3 355 353 1 354 355 351 354 22 10 12 6 354 343 350 343 139 156 172 188 148 138 124 118
22 32 25 31 12 16 9 11 20 3 7 15 13 14 19 19 10 11 8 5 359 353 351 359 355 355 358 16 27 18 2 353 331 337 330 318 175 119 123 128 144 128 134
36 32 31 27 24 18 16 12 13 5 3 10 12 8 12 17 12 7 6 4 1 360 354 352 358 356 355 1 22 14 3 345 338 342 333 343 330 74 83 91 126 132 114
37 28 33 35 17 22 14 11 8 12 358 7 6 1 6 13 13 4 358 359 356 2 360 354 353 356 359 355 359 3 2 356 349 345 339 331 339 317 127 128 136 131 125
42 44 36 32 25 18 14 16 8 16 350 6 2 357 355 4 9 0 356 356 355 356 354 356 348 358 359 357 355 351 359 358 353 349 335 345 353 359 98 122 127 142 143